COSMOS 1163

导读

COSMOS 1163是苏联(发射时归属独联体CIS体系)于1980年2月11日发射的“宇宙”系列卫星,冷战时期苏联常用该系列命名军用卫星以隐藏任务属性,推测承担侦察或航天技术试验任务,运行于近地轨道。作为冷战空间竞赛产物,它体现了苏联当时的航天技术积累,任务结束后再入大气层销毁,是“宇宙”系列上千颗卫星中典型的冷战航天印记。

Basic Information
目录编号:
11698
目录名称:
COSMOS 1163
国际标识:
1980-012H
轨道中心:
EARTH
卫星名称:
COSMOS 1163
卫星全名:
--
卫星状态:
在轨 (已飞行16926 天)
发射日期:
1980-02-11 UTC
国别 :
俄罗斯(独联体) (CIS)
星等 :
--
Orbit Information
数据来源 国际轨道数据
星历时间: 2026-06-15T07:45:53+0800
7小时前
查看轨道信息
半长轴: 7884.953km
偏心率: 0.0045442
轨道倾角: 74.022°
近地点辐角 145.507°
升交点赤经 22.995°
平近点角 327.666°
近地点: 1470.985km
远地点: 1542.647km
周期: 116.134分钟
每日圈数: 12.399498
Detailed Information
使用方式:
暂无
2D Orbit Map
3D Orbit Map
Orbit Altitude Analysis Chart
Orbit Inclination Analysis Chart
Orbit Comprehensive Analysis Chart
View Comprehensive Chart